Location: Fouquenies
(49.4624°N, 2.0492°E)
Time: 12:13:01
(UTC+00:00)

Cosmos 2315 Rocket - Pass Details

Date: 03 February 2023
Orbit: 965 x 1002 km, 82.9° (Epoch: 22 March)

Event Time Altitude Azimuth Distance (km) Brightness Sun altitude
Rises 18:48:22 0° 160° (SSE) 3,692 6.9 -19.3°
Reaches altitude 10° 18:51:03 10° 152° (SSE) 2,753 6.1 -19.7°
Maximum altitude 18:56:46 38° 87° (E) 1,491 4.4 -20.7°
Drops below altitude 10° 19:02:33 10° 23° (NNE) 2,785 6.2 -21.6°
Sets 19:05:16 0° 15° (NNE) 3,740 6.9 -22.0°
